Seldovia, AK

11:49 AM AKST on December 17, 2017 (GMT -0900)
Seldovia

Weather History for PASO - August, 2013

Change the Weather History Date:

Sunday, August 25, 2013

  Actual Average (PAHO) Record (PAHO)
Temperature  
Mean Temperature 52 °F -  
Max Temperature 64 °F 59 °F 68 °F (1978)
Min Temperature 41 °F 45 °F 34 °F (1948)
Degree Days  
Heating Degree Days 13    
Growing Degree Days 2 (Base 50)    
Moisture  
Dew Point 44 °F    
Average Humidity 81    
Maximum Humidity 96    
Minimum Humidity 55    
Precipitation  
Precipitation 0.00 in - - ()
Sea Level Pressure  
Sea Level Pressure 29.72 in    
Wind  
Wind Speed 1 mph (NNE)    
Max Wind Speed 6 mph    
Max Gust Speed -    
Visibility 10 miles    
Events      
Averages and records for this station are not official NWS values.
T = Trace of Precipitation, MM = Missing Value Source: NWS Daily Summary

Daily Weather History Graph

Daily Weather History Graph

Search for Another Location

Airport or City:

Trip Planner

Search our weather history database for the weather conditions in past years. The results will help you decide how hot, cold, wet, or windy it might be!

Date:

Astronomy

Aug. 25, 2013 Rise Set
Actual Time 6:48 AM AKDT 9:27 PM AKDT
Civil Twilight 6:02 AM AKDT 10:13 PM AKDT
Nautical Twilight 5:00 AM AKDT 11:14 PM AKDT
Astronomical Twilight 3:31 AM AKDT 12:39 AM AKDT
Moon 10:31 PM AKDT (8/25) 1:31 PM AKDT (8/25)
Length of Visible Light 16h 11m
Length of Day
14h 39m
Waning Gibbous, 74% of the Moon is Illuminated
Aug 25
Waning Gibbous
Aug 28
Last Quarter
Sep 5
New
Sep 12
First Quarter
Sep 19
Full

Hourly Weather History & Observations

Time (AKDT) Temp. Dew Point Humidity Pressure Visibility Wind Dir Wind Speed Gust Speed Precip Events Conditions
12:53 AM 44.1 °F 42.1 °F 93% 29.74 in 10.0 mi Calm Calm - N/A   Clear
1:53 AM 43.0 °F 41.0 °F 93% 29.74 in 10.0 mi Calm Calm - N/A   Clear
2:53 AM 43.0 °F 41.0 °F 93% 29.74 in 10.0 mi Calm Calm - N/A   Clear
3:53 AM 42.1 °F 41.0 °F 96% 29.75 in 10.0 mi Calm Calm - N/A   Clear
4:53 AM 42.1 °F 39.9 °F 92% 29.73 in 10.0 mi Calm Calm - N/A   Clear
5:53 AM 41.0 °F 39.0 °F 93% 29.73 in 10.0 mi Calm Calm - N/A   Clear
6:53 AM 41.0 °F 39.0 °F 93% 29.74 in 10.0 mi Calm Calm - N/A   Clear
7:53 AM 41.0 °F 39.0 °F 93% 29.75 in 10.0 mi Calm Calm - N/A   Clear
8:53 AM 44.1 °F 43.0 °F 96% 29.74 in 10.0 mi Calm Calm - N/A   Clear
9:53 AM 50.0 °F 46.9 °F 89% 29.73 in 10.0 mi Calm Calm - N/A   Clear
10:53 AM 55.0 °F 48.0 °F 77% 29.71 in 10.0 mi South 4.6 mph - N/A   Clear
11:53 AM 59.0 °F 44.1 °F 58% 29.70 in 10.0 mi North 4.6 mph - N/A   Clear
12:53 PM 57.0 °F 45.0 °F 64% 29.71 in 10.0 mi Variable 5.8 mph - N/A   Clear
1:53 PM 59.0 °F 43.0 °F 55% 29.71 in 10.0 mi Variable 4.6 mph - N/A   Clear
2:53 PM 62.1 °F 46.9 °F 58% 29.71 in 10.0 mi NNE 5.8 mph - N/A   Clear
3:53 PM 63.0 °F 48.9 °F 60% 29.70 in 10.0 mi NNE 3.5 mph - N/A   Clear
4:53 PM 60.1 °F 50.0 °F 69% 29.70 in 10.0 mi NNE 3.5 mph - N/A   Clear
5:53 PM 55.9 °F 48.9 °F 77% 29.70 in 10.0 mi Calm Calm - N/A   Clear
6:53 PM 57.0 °F 48.0 °F 72% 29.70 in 10.0 mi Calm Calm - N/A   Clear
7:53 PM 55.0 °F 46.9 °F 74% 29.70 in 10.0 mi North 3.5 mph - N/A   Clear
8:53 PM 52.0 °F 46.9 °F 83% 29.71 in 10.0 mi Calm Calm - N/A   Clear
9:53 PM 51.1 °F 46.9 °F 86% 29.72 in 10.0 mi Calm Calm - N/A   Clear
10:53 PM 48.9 °F 46.0 °F 90% 29.73 in 10.0 mi Calm Calm - N/A   Clear
11:53 PM 48.9 °F 45.0 °F 86% 29.74 in 10.0 mi Calm Calm - N/A   Clear